Location: Andrea Ville Subdivision
(14.3485°N, 120.9580°E)
Time: 03:21:20
(UTC+00:00)

Meteor 2-19 Rocket - Pass Details

Date: 13 January 2026
Orbit: 935 x 959 km, 82.5° (Epoch: 16 February)

Event Time Altitude Azimuth Distance (km) Brightness Sun altitude
Rises 10:54:41 0° 175° (S) 3,629 7.7 -16.6°
Reaches altitude 10° 10:57:13 10° 171° (S) 2,683 6.9 -17.1°
Maximum altitude 11:03:15 60° 93° (E) 1,082 4.4 -18.5°
Enters shadow 11:08:58 12° 15° (NNE) 2,566 6.4 -19.8°
